Terug naar catalogus

STARLINK-35246

ActiefCommunicatieSSO
NORAD 65660·PAYLOAD·🇺🇸 United States

Gelanceerd Sep 19, 2025 vanaf Vandenberg Space Force Base

Loading…

Volgende Passages (komende 24 uur)

TLE

VersSource: CelesTrak SupGP

Epoch: Sep 14, 2026, 23:02 UTC

1 65660C 25211J   26257.96020833  .00027349  00000+0  84906-3 0  2578
2 65660  97.2832 298.2790 0001109  88.4779 313.0231 15.33423251    10

Volg STARLINK-35246 in realtime met AllMySat

Download on the App Store